Home > Weather > Urbana > Past weeks

Flag for U.S.A. Weather for the Past 2 Weeks in Urbana, Illinois, U.S.A.

Now
19 °F

Clear.


Feels Like: 6 °F
Forecast: 8 / 21 °F
Wind: 13 mph from West

Location: University Of Illinois-Willard Airport

Current Time: Feb 10, 2016 at 7:28:08 PM

Latest Report: Feb 10, 2016 at 5:53 PM


Visibility: 10 mi

Pressure: 30.15 "Hg

Humidity: 59%

Dew point: 7 °F

Location of UrbanaLocation

Historic Weather in Urbana — Graph

°F

Urbana Temperature Yesterday

Maximum temperature yesterday: 19 °F (at 12:53 AM)
Minimum temperature yesterday: 15 °F (at 9:53 PM)
Average temperature yesterday: 18 °F

High & Low Weather Summary for the Past Weeks

 TemperatureHumidityPressure
High60 °F (Jan 31, 11:53 AM)100% (Feb 2, 1:53 PM)30.43 "Hg (Feb 2, 1:53 PM)
Low5 °F (Feb 10, 6:53 AM)43% (Feb 1, 3:53 PM)29.44 "Hg (Feb 2, 6:59 PM)
Average33 °F78%29.97 "Hg
* Reported Jan 26 5:53 PM — Feb 10 5:53 PM, Urbana, Weather by CustomWeather, © 2016

Note: Actual official high and low records may vary slightly from our data, if they occured in-between our weather recording intervals... More about our weather records

Advertising

Urbana Weather History for the Previous 24 Hours

 ConditionsComfort  
Time TempWeatherWind HumidityBarometerVisibility
5:53 PM
Wed, Feb 10
19 °FClear.13 mph59%30.15 "Hg10 mi
4:53 PM19 °FPartly sunny.14 mph59%30.13 "Hg10 mi
3:53 PM20 °FOvercast.15 mph60%30.11 "Hg10 mi
2:53 PM20 °FSunny.15 mph60%30.10 "Hg10 mi
1:53 PM19 °FSunny.14 mph59%30.09 "Hg10 mi
12:53 PM18 °FPassing clouds.14 mph59%30.10 "Hg10 mi
11:53 AM17 °FSunny.14 mph62%30.13 "Hg10 mi
10:53 AM15 °FSunny.14 mph64%30.13 "Hg10 mi
9:53 AM14 °FSunny.14 mph67%30.14 "Hg10 mi
8:53 AM12 °FSunny.20 mph70%30.13 "Hg10 mi
7:53 AM9 °FSunny.13 mph76%30.12 "Hg10 mi
6:53 AM5 °FSunny.8 mph83%30.10 "Hg10 mi
5:53 AM6 °FClear.8 mph79%30.09 "Hg10 mi
4:53 AM9 °FClear.14 mph76%30.08 "Hg10 mi
3:53 AM9 °FClear.12 mph76%30.07 "Hg10 mi
2:53 AM11 °FClear.14 mph73%30.06 "Hg10 mi
1:53 AM12 °FPassing clouds.18 mph73%30.06 "Hg10 mi
12:53 AM13 °FMostly cloudy.13 mph74%30.05 "Hg10 mi
11:53 PM
Tue, Feb 9
15 °FMostly cloudy.16 mph74%30.04 "Hg9 mi
10:53 PM15 °FLight snow. Overcast.15 mph80%30.05 "Hg8 mi
9:53 PM15 °FMostly cloudy.16 mph77%30.04 "Hg9 mi
8:53 PM16 °FMostly cloudy.17 mph77%30.04 "Hg10 mi
7:53 PM16 °FLight snow. Mostly cloudy.14 mph77%30.03 "Hg9 mi
Weather by CustomWeather, © 2016

See weather overviewHow to use our weather pages